Location: Nelson
(41.2830°S, 173.2830°E)
Time: 18:43:26
(UTC+13:00)

Spot 2 Rocket - Pass Details

Date: 24 January 2019
Orbit: 758 x 772 km, 98.6° (Epoch: 21 February)

Event Time Altitude Azimuth Distance (km) Brightness Sun altitude
Rises 23:14:14 0° 171° (S) 3,282 7.4 -20.8°
Reaches altitude 10° 23:16:35 10° 173° (S) 2,346 6.6 -21.1°
Maximum altitude 23:21:41 62° 252° (WSW) 874 3.9 -21.7°
Enters shadow 23:25:11 20° 328° (NNW) 1,728 5.1 -22.0°
